Regional Weather Roundup
Issued by NWS San Diego, CA

Home | Current Version | Previous Version | Text Only | Print | Product List | Glossary On
Versions: 1 2 3 4 5 6 7 8 9 10 11 12 13 14 15 16 17 18 19 20 21 22 23 24 25 26 27 28 29 30 31 32 33 34 35 36 37 38 39 40 41 42 43 44 45 46 47 48 49 50
000
ASUS46 KSGX 230803
RWRSGX

SAN DIEGO HOURLY WEATHER ROUNDUP
NATIONAL WEATHER SERVICE SAN DIEGO CA
100 AM PDT THU OCT 23 2014

NOTE: "FAIR" INDICATES FEW OR NO CLOUDS BELOW 12,000 FEET WITH NO
SIGNIFICANT WEATHER AND/OR OBSTRUCTIONS TO VISIBILITY.

CAZ042-043-060-061-PZZ750-775-230900-

GREATER SAN DIEGO AREA

CITY           SKY/WX    TMP DP  RH WIND       PRES   REMARKS
LINDBERGH FLD  PTCLDY    66  60  81 CALM      29.97F
POINT LOMA       N/A     65  62  91 NW3         N/A
NATIONAL CITY    N/A     64  60  86 CALM      29.97S
CHULA VISTA      N/A     61  59  94 CALM      29.90S
IMPERIAL BEACH PTCLDY    60  58  92 E3        29.96F
BROWN FIELD    CLEAR     62  58  86 SE3       29.97S
MIRAMAR MCAS   FOG       63  61  93 CALM      29.96F VSB 1/4
MONTGOMERY FLD FOG       63  62  97 CALM      29.96F VSB 1/4

$$

NORTH SAN DIEGO COUNTY

CITY           SKY/WX    TMP DP  RH WIND       PRES   REMARKS
CAMP PENDLETON PTCLDY    58  48  69 NE5       29.97S
OCEANSIDE AP   FOG       54  52  93 CALM      29.96S VSB 1
OCEANSIDE HBR    N/A     61  59  92 NE3       29.99S
VISTA            N/A     60  56  87 CALM      29.95S
CARLSBAD       FOG       64  63  96 CALM      29.96S VSB 1/4
DEL MAR          N/A     64  62  94 CALM      29.98F
FALLBROOK        N/A     63  63 100 CALM      29.97R
ESCONDIDO        N/A     61  52  72 CALM      29.99S
SAN MARCOS       N/A     61  57  86 CALM      29.94F
POWAY            N/A     56  52  86 CALM      29.97F

$$

EAST SAN DIEGO COUNTY

CITY           SKY/WX    TMP DP  RH WIND       PRES   REMARKS
RAMONA         CLEAR     52  42  69 E3        29.99F
SANTEE LAKES     N/A     58  55  87 CALM      29.98S
LA MESA          N/A     64  60  87 CALM      29.91S
JAMUL            N/A     57  52  82 CALM      29.96S
DESCANSO N       N/A     57  29  34 E3        29.89F
MT. LAGUNA OBS   N/A     63  20  19 CALM      29.79S
CAMPO            N/A     50  28  42 NE7       30.03S

$$

ORANGE COUNTY AND THE LOS ANGELES BASIN

CITY           SKY/WX    TMP DP  RH WIND       PRES   REMARKS
JOHN WAYNE AP  CLEAR     68  60  75 CALM      29.96S
LAKE FOREST FR   N/A     65  48  53 CALM      29.85F
SANTA ANA        N/A     63  59  88 CALM      29.91F
HUNTINGTON BCH   N/A     59  58  95 CALM      29.98F
LOS ALAMITOS   FAIR      62  62  97 CALM      29.96S
FULLERTON      CLEAR     64  57  78 CALM      29.95F
LONG BEACH     CLEAR     65  61  87 CALM      29.95F
L.A. AP        PTCLDY    65  64  97 CALM      29.96S
L.A. DOWNTOWN  CLEAR     64  59  83 CALM      29.95F

$$

THE INLAND EMPIRE

CITY           SKY/WX    TMP DP  RH WIND       PRES   REMARKS
CORONA         CLEAR     55  49  80 CALM      29.99R
CHINO          CLEAR     59  56  89 CALM      29.99S FOG
ONTARIO        PTCLDY    66  56  70 CALM      29.98S
RIVERSIDE AP   CLEAR     65  51  60 CALM      29.99S
RIV CYN CREST    N/A     66  61  84 CALM      29.96S
MORENO VALLEY    N/A     65  56  72 CALM      29.19R
MARCH ARB      CLEAR     57  47  69 CALM      30.01S
MENIFEE          N/A     62  51  66 CALM      30.05S
HEMET EAST       N/A     67  25  21 CALM      29.97S
FRENCH VALLEY  FAIR      61  41  48 CALM      30.01S
TEMECULA         N/A     60  46  59 CALM      29.95F

$$

SAN BERNARDINO AND RIVERSIDE COUNTY MOUNTAINS

CITY           SKY/WX    TMP DP  RH WIND       PRES   REMARKS
BIG BEAR AP    CLEAR     34  18  51 CALM      30.29S
ANGELUS OAKS     N/A     53  24  32 CALM      29.95S
PINE COVE        N/A     59  23  24 CALM      29.89F

$$

SOUTHERN DESERT INCLUDING THE COACHELLA VALLEY

CITY           SKY/WX    TMP DP  RH WIND       PRES   REMARKS
PALM SPRINGS   CLEAR     77  28  16 NW10      29.96S
THOUSAND PALMS   N/A     71  37  28 W2        29.90F
PALM DESERT      N/A     71  42  35 CALM      26.06
THERMAL        CLEAR     67  45  45 N5        29.89S
BLYTHE         CLEAR     73  42  32 N5        29.93R
IMPERIAL AP    CLEAR     70  47  43 SW7       29.90R
EL CENTRO NAS  CLEAR     70  40  33 SW5       29.90S
YUMA AZ        MOCLDY    76  52  43 CALM      29.90F

$$

UPPER DESERT

CITY           SKY/WX    TMP DP  RH WIND       PRES   REMARKS
VICTORVILLE AP CLEAR     55  25  30 S6        30.07S
HESPERIA         N/A     56  32  39 CALM      30.14S
APPLE VALLEY     N/A     49  41  73 CALM      30.15R
PALMDALE       CLEAR     56  33  42 S7        30.06S
LANCASTER      CLEAR     51  30  44 CALM      30.06R
EDWARDS AFB    CLEAR     51  28  40 SW5       30.05R
DAGGETT        CLEAR     60  26  27 W3        30.03S
29 PALMS N     CLEAR     61  31  32 NW5       30.10R
NEEDLES        CLEAR     72  39  30 SW5       29.96S

$$

REGIONAL REPORTS

CITY           SKY/WX    TMP DP  RH WIND       PRES   REMARKS
SANTA BARBARA  CLEAR     60  53  77 NE3       29.94S
SANDBERG       CLEAR     64  27  24 NW7       30.16R
MT. WILSON       N/A     61  25  25 SE9         N/A
LAS VEGAS NV   PTCLDY    66  28  24 S10       30.02R
PHOENIX AZ     PTCLDY    74  53  48 E3        29.95R
TIJUANA        CLEAR     63  59  88 CALM      29.99S

$$

OFFSHORE ISLANDS

CITY           SKY/WX    TMP DP  RH WIND       PRES   REMARKS
CATALINA ARPT  PTCLDY    69  40  34 CALM      30.00F
SAN NICOLAS IS PTCLDY   N/A N/A N/A CALM      29.95F

$$

MARINE AND OFFSHORE BUOY REPORTS

STATION/POSITION SKY/WX   TEMP    WIND        PRES    SWELL
                          AIR SEA DIR/SP/G            HT/PER/DIR
                          (F)     (DEG/KT/KT) (MB)    (FT/S/D)
TANNER BANKS               67 68  320/ 10/ 12 1014.6F   8/320/13
S CLEMENTE BASIN           69 71  350/  4/  6 1014.2F   5/300/13
SAN NICOLAS IS.               66                N/A     5/310/13
SO. S. ROSA ISLA           65 66  320/ 17/ 19 1013.3F   7/12
W. S. BARBARA CH           65 65  330/ 19/ 23 1012.9F   8/320/13
M. S. BARBARA CH                  240/  4       N/A
S. MONICA BASIN            69 72  220/  4/  6 1013.6F   5/260/13
S PEDRO CHANNEL               70                N/A     2/270/11
DANA POINT                    69                N/A     2/280/13
CMP PENDLETON NS              70                N/A     2/230/12
OCEANSIDE OFFSHR              71                N/A     2/250/12
TORREY PINES OTR              72                N/A     2/280/13
LA JOLLA 1                 67 71   50/  4/  5 1014.7S
MISSION BAY BUOY              71                N/A     3/270/13
SAN DIEGO BAY                 74              1015.1F
POINT LOMA SOUTH              72                N/A     3/280/13

$$




USA.gov is the U.S. government's official web portal to all federal, state and local government web resources and services.